Terminal Aerodrome Forecast
Issued by NWS Cleveland, OH

Home | Current Version | Previous Version | Text Only | Print | Product List | Glossary Off
Versions: 1 2 3 4 5 6 7 8 9 10 11 12 13 14 15 16 17 18 19 20 21 22

000
FTUS41 KCLE 260900 AAA
TAFERI
TAF AMD
KERI 260950Z 2610/2706 18010G18KT P6SM SCT045 BKN250
     FM261700 24008KT P6SM SCT040 BKN200
     FM270000 19006KT P6SM FEW035 BKN150
     FM270400 21005KT P6SM VCTS SCT025 OVC035CB=

USA.gov is the U.S. government's official web portal to all federal, state and local government web resources and services.